Effective Sunday, March 17, 2024, the National Weather Service National Data Buoy Center will discontinue its Dial-A-Buoy Interactive Voice Response system. For more information, see Service Change Notice 24-06 (PDF).

Station THLO1 - Toledo Light No. 2 OH Image indicating link to RSS feed of recent meteorological observations for station THLO1


Conditions at THLO1 as of
(7:00 pm EST on 02/29/2024)
0000 GMT on 03/01/2024:
     

Click on the graph icon in the table below to see a time series plot of the last five days of that observation.

5-day plot - Wind Direction Wind Direction (WDIR):SSW ( 200 deg true )
5-day plot - Wind Speed Wind Speed (WSPD): 13 kts
5-day plot - Wind Gust Wind Gust (GST): 15 kts
5-day plot - Atmospheric Pressure Atmospheric Pressure (PRES):30.39 in
5-day plot - Pressure Tendency Pressure Tendency (PTDY):+0.00 in ( Steady )
5-day plot - Air Temperature Air Temperature (ATMP): 36.5 °F
5-day plot - Dew Point Dew Point (DEWP): 22.6 °F
5-day plot - Wind Chill Wind Chill (CHILL): 27.3 °F
5-day plot - Wind Speed at 10 Meters Wind Speed at 10 meters (WSPD10M): 12 kts
5-day plot - Wind Speed at 20 Meters Wind Speed at 20 meters (WSPD20M): 14 kts
5-day plot -  Wind Speed, Wind Gust and Atmospheric Pressure Combined plot of Wind Speed, Gust, and Air Pressure
Previous observations
TIME
(EST)
5-day plot - Wind Direction
WDIR
 
5-day plot - Wind Speed
WSPD
kts
5-day plot - Wind Gust
GST
kts
5-day plot - Wave Height
WVHT
ft
5-day plot - Dominant Wave Period
DPD
sec
5-day plot - Average Wave Period
APD
sec
5-day plot - Mean Wave Direction
MWD
 
5-day plot - Atmospheric Pressure
PRES
in
5-day plot - Pressure Tendency
PTDY
in
5-day plot - Air Temperature
ATMP
°F
5-day plot - Water Temperature
WTMP
°F
5-day plot - Dew Point
DEWP
°F
5-day plot - Salinity
SAL
psu
5-day plot - Visibility
VIS
nmi
5-day plot - Tide (above MLLW)
TIDE
ft
2024-02-29 06:00 pm SW 10 13----30.38-0.02 36.3- 21.0---
2024-02-29 05:00 pm SW 13 15----30.38-0.03 35.6- 16.9---
2024-02-29 04:00 pmWSW 13 15----30.39-0.05 34.5- 14.5---
2024-02-29 03:00 pmWSW 12 14----30.40-0.05 32.7- 11.7---
2024-02-29 02:00 pmWSW 12 13----30.42-0.03 30.6- 12.0---
2024-02-29 01:00 pmWSW 11 14----30.44+0.01 28.0- 11.7---
2024-02-29 12:00 pmWSW 9 14----30.45+0.03 26.6- 10.8---
2024-02-29 11:00 amWSW 11 15----30.45+0.06 25.2- 9.7---
2024-02-29 10:00 am W 14 16----30.43+0.07 24.6- 9.5---
2024-02-29 09:00 amWNW 15 19----30.42+0.10 24.3- 9.1---
2024-02-29 08:00 amWNW 17 20----30.38+0.09 24.6- 9.9---
2024-02-29 07:00 amWNW 16 21----30.36+0.09 25.2- 10.9---
2024-02-29 06:00 amWNW 22 26----30.32+0.07 25.7- 11.7---
2024-02-29 05:00 amWNW 17 20----30.29+0.05 26.1- 12.4---
2024-02-29 04:00 am W 18 22----30.27+0.04 26.6- 14.7---
2024-02-29 03:00 am W 20 23----30.25+0.04 27.1- 15.4---
2024-02-29 02:00 amWSW 17 20----30.24+0.04 27.5- 17.2---
2024-02-29 01:00 amWSW 18 22----30.22+0.04 26.4- 16.0---
2024-02-29 12:00 am W 19 22----30.21+0.05 25.9- 15.8---
2024-02-28 11:00 pm W 19 22----30.20+0.07 25.9- 15.1---
2024-02-28 10:00 pm W 22 27----30.19+0.12 25.9- 14.0---
2024-02-28 09:00 pm W 25 29----30.16+0.14 26.2- 13.8---
2024-02-28 08:00 pm W 28 33----30.13+0.19 26.4- 14.4---
2024-02-28 07:00 pm W 29 33----30.07+0.21 26.4- 12.9---